sat.trackr.live / text

‹ back to catalog

SHIJIAN-6 04A (SJ-6 04A)

NORAD 37179 · 2010-051A

PAYLOAD ACTIVE UNKNOWN

§ Identity

Operator
Country
PRC
Launch date
2010-10-06
Launch site
TAISC
Launch vehicle
Mass (kg)
RCS (m²)
1.16

External: N2YO · Heavens-Above · Gunter

§ Orbital elements

Epoch: 2026-09-20T04:21:02.787264Z

Period
94.80 min
Inclination
97.8255°
Eccentricity
0.0016374
Mean motion
15.18935508 rev/d
Perigee alt
497.8 km
Apogee alt
520.3 km
Semi-major
6,887.2 km
B*
1.4534e-4
RAAN
289.6951°
Arg perigee
256.4532°
Mean anomaly
103.4877°
Rev number
87,136

§ Raw data

SHIJIAN-6 04A (SJ-6 04A)1 37179U 10051A   26263.18128226  .00002970  00000+0  14534-3 0  99902 37179  97.8255 289.6951 0016374 256.4532 103.4877 15.18935508871363

JSON: /api/v1/satellites/37179 · /tle

For live sub-satellite position, see the globe view (requires WebGL).

§ Visibility from observer

Set your observer location to see the next 7 days of passes ≥ 10°. The values pass through the URL so the page stays shareable.

No JS? Fill the form by hand. The geolocation button needs JavaScript.

§ Radio — SatNOGS DB

ModeDescriptionDownlinkUplink
FM S-band telemetry 2.230 GHz
FM S-band telemetry (inactive) 2.270 GHz

2 transmitters · refreshed weekly from db.satnogs.org